Wind_Speed
27 27 27 26 26 27 27 27 28 27 28 30 30 30 29 30 31 32 34 35 36 36 36 37 38 40 40 41 41 41 40 40 40 40 40 41 42 42 43 43 43 44 44 43
26 26 25 26 26 27 27 27 27 28 29 30 30 31 30 31 31 31 32 33 34 35 35 36 36 38 39 40 41 41 41 41 41 41 41 42 42 42 43 43 43 43 44 44
26 25 25 26 26 27 27 27 27 27 28 30 31 30 29 29 30 30 30 31 33 34 34 35 35 36 38 39 39 40 41 41 41 41 41 42 42 42 42 42 43 43 43 44
26 25 25 26 26 26 26 26 27 27 28 29 30 31 28 28 28 28 29 29 30 32 33 34 35 36 37 38 39 39 40 41 41 42 41 42 42 42 42 42 42 43 43 44
26 25 26 26 26 26 26 26 27 28 29 29 29 30 27 26 25 25 26 27 28 30 32 33 34 35 36 36 37 38 39 39 40 41 40 40 40 40 40 41 41 42 42 42
26 25 26 26 26 27 27 27 28 28 29 30 28 29 27 24 24 24 25 26 27 28 29 31 33 34 35 36 36 37 38 38 39 39 39 39 39 39 39 40 40 41 41 41
26 25 26 26 27 27 27 27 29 30 30 30 28 28 26 23 23 24 24 25 26 27 28 30 31 33 34 36 36 37 37 37 37 37 37 37 38 38 38 38 39 39 39 40
26 26 26 26 26 27 27 28 28 30 31 30 29 28 25 24 24 24 24 24 25 26 28 30 32 32 33 35 35 35 35 35 36 36 35 36 36 37 37 37 37 38 39 40
27 27 26 27 27 27 28 28 28 30 31 31 30 29 26 25 24 24 24 24 25 25 26 28 30 30 31 32 33 34 34 34 34 35 35 35 36 36 37 37 38 38 38 39
28 29 28 28 29 28 29 28 28 29 31 32 31 29 27 25 25 25 24 24 25 26 26 26 27 28 29 30 31 32 32 33 33 34 35 35 35 35 36 37 38 37 37 37
28 30 30 29 29 29 29 29 29 30 31 32 32 29 27 26 26 25 25 25 25 26 26 26 27 28 29 29 29 30 31 32 32 33 34 35 35 34 35 37 36 36 36 36
27 28 29 29 30 30 30 30 30 30 31 31 32 31 28 27 26 26 27 27 26 26 26 26 26 27 27 28 28 29 30 30 31 32 33 33 34 34 34 35 36 36 36 35
27 27 28 28 29 29 30 30 30 31 32 32 32 30 28 27 27 26 27 27 26 26 25 26 26 26 26 27 27 28 28 29 29 31 32 32 33 33 34 34 35 35 36 36
28 28 28 28 28 29 30 29 30 31 32 33 32 30 27 27 27 27 28 27 26 26 26 26 26 26 26 26 27 28 28 29 29 29 30 31 33 33 33 33 34 35 35 36
28 29 29 28 28 28 29 29 30 31 32 32 30 29 26 27 28 28 28 28 27 27 27 26 26 26 26 26 27 27 28 29 29 30 30 30 32 33 33 33 34 35 35 35
29 30 29 28 28 29 29 28 29 30 30 30 29 28 27 28 28 27 27 28 27 28 28 26 25 25 25 25 26 26 28 29 30 30 30 30 30 31 32 32 32 33 34 34
30 30 30 29 28 29 29 27 28 28 28 29 29 29 28 28 28 27 27 27 27 27 27 26 26 25 25 25 26 26 28 29 30 30 30 30 30 31 31 31 32 32 33 33
29 29 30 30 29 30 27 26 27 28 28 28 29 28 28 28 27 27 27 26 26 26 27 27 26 26 26 26 27 28 28 29 29 29 30 31 31 31 31 31 31 32 32 32
29 29 30 30 31 30 27 27 27 27 27 28 28 27 27 27 28 27 27 27 26 26 26 26 27 27 27 27 27 28 28 29 30 30 31 31 31 30 30 31 32 32 32 32
29 29 30 31 31 31 28 27 28 28 28 26 26 26 27 28 28 27 28 28 27 26 25 26 27 28 28 28 29 29 29 29 29 30 30 30 30 30 30 31 31 32 32 32
28 29 30 31 32 31 28 28 28 29 28 26 26 26 26 27 27 27 28 27 27 27 27 27 28 29 29 29 30 30 30 29 29 29 30 30 30 30 30 30 30 31 31 31
28 28 29 30 31 29 28 29 29 28 28 27 27 27 26 26 26 27 27 27 27 28 28 29 30 29 30 31 30 30 29 29 28 28 29 29 29 29 29 30 30 30 31 30
28 28 29 30 30 28 29 29 29 28 28 28 28 27 27 26 26 28 28 28 28 30 30 31 31 31 31 30 30 29 29 29 29 28 28 28 28 28 28 29 29 29 29 28
29 28 29 29 28 28 28 28 28 27 28 28 27 26 27 27 27 28 28 28 29 30 30 31 31 30 30 29 28 28 28 28 28 28 28 28 28 28 28 28 28 28 28 27
29 30 30 30 28 29 28 28 29 28 28 27 27 27 28 28 28 29 28 28 28 29 29 30 30 30 29 28 28 27 27 27 27 27 27 28 28 27 27 28 27 26 26 26
28 28 29 28 27 29 28 29 29 29 28 27 28 28 29 29 29 28 28 28 28 27 28 28 27 28 28 28 28 27 27 27 26 26 26 26 25 24 25 26 26 25 24 24
Wind_Direction
267 266 267 269 268 269 271 272 272 271 271 270 270 271 273 274 274 271 269 266 264 263 261 261 262 261 260 260 260 260 260 260 261 261 261 261 262 263 264 265 265 265 266 266
267 266 267 267 268 269 271 272 271 270 272 272 271 272 274 276 276 275 272 268 265 264 262 262 263 261 260 260 259 259 260 261 262 262 262 262 263 264 265 265 266 266 266 267
266 267 267 267 268 270 270 271 272 272 273 275 275 274 275 277 278 277 274 271 267 264 263 263 263 263 262 262 261 260 260 262 262 263 263 263 263 264 265 265 266 266 266 267
265 265 265 267 268 270 270 271 272 273 274 276 278 279 277 279 280 280 279 276 272 267 265 264 263 263 263 263 263 262 261 262 262 263 264 263 263 264 264 265 266 267 266 266
267 265 265 265 266 267 270 272 273 274 275 277 279 281 281 281 282 282 281 279 276 271 267 266 265 264 264 264 264 264 263 263 263 264 264 264 264 265 265 265 266 266 267 267
267 265 265 266 266 267 269 272 274 275 276 278 280 283 284 284 284 282 280 279 276 274 271 269 267 267 267 266 266 265 264 264 264 265 265 265 265 265 265 265 265 266 266 267
266 265 265 266 267 267 269 272 275 276 276 278 281 281 284 285 285 284 283 281 278 276 274 273 272 270 269 269 267 266 265 264 264 264 265 265 265 265 264 264 265 265 266 266
268 266 266 267 267 267 268 271 274 277 278 278 278 280 283 285 285 286 285 284 282 279 279 277 275 273 271 270 269 267 266 264 264 264 265 265 265 265 265 265 266 266 267 267
269 267 267 267 267 268 269 270 272 274 277 278 277 279 281 283 284 284 284 285 285 283 284 282 279 275 273 271 269 268 267 266 265 264 264 265 265 265 265 266 267 266 266 268
270 268 267 267 266 267 269 270 271 272 276 278 279 281 283 283 284 284 286 287 288 289 288 286 281 278 276 274 272 270 269 267 266 266 266 266 266 265 265 267 267 267 267 268
272 271 270 269 268 268 267 268 269 270 273 277 280 281 285 286 286 285 286 288 289 291 290 288 284 282 279 276 274 273 271 269 269 268 268 268 267 267 267 266 267 267 267 268
273 273 272 271 269 268 268 268 269 270 272 274 277 280 283 284 284 284 285 287 289 290 290 289 286 283 280 277 275 275 275 273 271 269 268 268 267 267 269 268 268 267 267 267
272 273 274 274 272 271 269 268 268 269 270 272 275 280 282 282 282 283 285 287 289 289 288 288 288 283 279 277 275 275 276 275 273 271 269 269 268 268 270 270 269 269 269 269
270 271 273 275 275 273 272 270 268 268 269 272 275 278 279 281 281 282 284 286 287 288 288 287 287 284 280 277 275 276 277 276 274 274 273 271 269 270 271 271 270 270 270 270
268 270 273 274 275 273 273 271 269 269 271 273 276 276 276 277 279 282 284 284 285 287 287 287 287 285 281 279 279 278 279 279 278 276 274 273 272 272 272 274 272 270 270 270
267 270 272 274 275 274 272 271 270 270 272 273 274 274 275 276 279 281 282 283 286 287 287 287 286 286 283 281 281 280 280 280 279 278 276 275 273 272 273 275 275 273 272 271
268 270 272 274 275 274 272 274 273 272 274 275 276 277 276 276 277 280 283 284 286 287 286 286 286 286 285 283 282 282 282 282 281 279 277 276 275 273 274 275 276 275 274 272
269 271 273 274 273 272 276 275 273 274 275 276 277 277 277 276 276 278 282 285 287 287 285 285 286 286 288 286 284 284 285 283 281 280 279 279 278 275 275 276 277 276 274 272
267 270 272 274 273 273 275 277 277 278 277 278 278 278 278 277 276 278 281 283 285 287 286 287 288 289 290 288 286 285 285 284 281 280 280 280 279 278 278 277 278 277 275 273
266 268 270 272 272 273 276 278 277 277 278 280 279 279 279 277 277 279 281 283 285 286 287 289 291 292 290 289 287 286 284 284 283 281 280 281 281 279 280 279 279 278 276 274
265 267 268 271 272 274 277 277 278 278 280 279 280 280 280 279 279 279 280 282 283 284 287 289 292 292 291 289 287 285 284 285 284 282 281 282 282 280 281 280 280 279 277 276
265 267 267 269 271 276 278 277 277 277 276 276 277 278 280 280 280 280 280 282 283 284 286 288 290 291 292 291 289 286 285 284 284 283 282 282 282 281 280 280 280 279 279 276
263 266 269 271 274 276 275 276 276 275 274 275 274 275 276 278 281 282 282 282 283 284 288 290 290 291 292 291 289 287 286 285 284 284 283 283 282 280 281 280 279 279 278 276
261 264 268 270 272 273 273 274 274 272 272 272 271 273 275 278 280 282 282 283 285 287 290 291 291 291 291 290 289 288 287 287 285 284 283 282 281 280 281 281 281 281 279 276
264 267 269 269 270 269 271 272 272 270 270 270 271 273 275 279 281 281 281 284 287 290 291 293 292 291 291 290 289 288 287 286 286 285 284 283 281 280 281 281 283 282 281 277
266 268 270 269 268 268 269 269 271 270 269 271 273 275 278 279 280 281 281 284 288 291 292 294 294 293 292 290 289 287 287 286 286 285 286 285 283 282 283 284 282 282 281 279
Height
5691 5692 5693 5693 5692 5692 5692 5692 5692 5692 5691 5690 5690 5690 5690 5689 5688 5688 5687 5687 5688 5689 5689 5690 5691 5692 5692 5693 5695 5696 5697 5698 5699 5700 5701 5702 5703 5704 5705 5705 5706 5706 5706 5707
5685 5686 5687 5686 5685 5685 5685 5685 5685 5684 5683 5682 5682 5682 5683 5681 5680 5679 5679 5678 5679 5680 5680 5681 5681 5682 5683 5684 5685 5686 5687 5688 5689 5690 5691 5692 5693 5694 5695 5695 5695 5696 5696 5696
5678 5680 5679 5679 5679 5679 5678 5678 5678 5677 5676 5675 5674 5675 5676 5674 5672 5671 5670 5670 5670 5671 5671 5672 5672 5673 5673 5674 5675 5676 5677 5678 5679 5679 5680 5682 5683 5684 5684 5685 5685 5685 5685 5685
5671 5672 5672 5672 5672 5672 5672 5672 5671 5670 5669 5668 5667 5665 5669 5667 5665 5663 5662 5662 5661 5662 5662 5663 5663 5664 5664 5665 5665 5665 5666 5667 5668 5669 5670 5671 5672 5673 5674 5674 5674 5674 5674 5674
5665 5665 5665 5665 5666 5665 5665 5664 5664 5663 5661 5661 5660 5658 5660 5659 5658 5657 5656 5654 5653 5653 5653 5654 5654 5655 5655 5655 5655 5655 5656 5657 5658 5658 5659 5660 5661 5662 5662 5663 5663 5663 5663 5664
5658 5658 5658 5659 5658 5658 5657 5657 5657 5655 5654 5654 5654 5652 5652 5653 5652 5650 5649 5647 5646 5645 5645 5645 5645 5645 5646 5646 5646 5646 5646 5647 5648 5649 5649 5650 5651 5651 5651 5652 5653 5653 5653 5653
5651 5652 5652 5651 5651 5651 5651 5651 5650 5648 5647 5647 5647 5645 5646 5646 5645 5643 5642 5640 5639 5638 5638 5638 5637 5637 5637 5637 5637 5637 5637 5638 5638 5638 5639 5640 5640 5641 5641 5642 5642 5642 5643 5643
5644 5645 5645 5645 5645 5644 5644 5644 5644 5642 5640 5640 5639 5638 5641 5640 5638 5636 5635 5633 5632 5631 5630 5630 5629 5628 5628 5628 5627 5627 5627 5628 5628 5629 5629 5630 5630 5630 5631 5631 5631 5632 5632 5632
5637 5638 5638 5638 5638 5638 5637 5637 5637 5635 5632 5632 5632 5633 5634 5633 5632 5630 5628 5627 5625 5624 5623 5621 5620 5619 5618 5618 5618 5618 5618 5618 5619 5619 5619 5620 5620 5620 5621 5621 5621 5622 5622 5622
5630 5630 5631 5631 5630 5630 5630 5630 5629 5627 5625 5624 5624 5625 5627 5626 5624 5623 5621 5619 5618 5616 5615 5613 5612 5611 5610 5609 5608 5608 5608 5609 5609 5610 5610 5610 5610 5610 5611 5611 5611 5611 5611 5611
5622 5622 5623 5623 5623 5623 5623 5623 5621 5620 5619 5617 5616 5621 5620 5619 5617 5615 5614 5612 5610 5609 5607 5605 5603 5602 5601 5600 5599 5599 5599 5599 5599 5600 5600 5600 5600 5601 5601 5601 5601 5601 5601 5601
5615 5614 5614 5616 5615 5615 5614 5615 5614 5614 5612 5610 5609 5614 5613 5612 5609 5608 5607 5605 5603 5601 5599 5597 5595 5594 5592 5592 5591 5591 5590 5590 5590 5590 5590 5591 5591 5591 5591 5591 5591 5591 5591 5591
5607 5607 5606 5607 5609 5608 5607 5607 5606 5605 5604 5602 5602 5606 5605 5604 5602 5600 5599 5597 5596 5594 5592 5590 5587 5586 5584 5584 5583 5583 5582 5582 5581 5581 5581 5581 5581 5581 5581 5581 5581 5581 5581 5581
5600 5599 5600 5600 5600 5599 5598 5599 5598 5597 5596 5595 5596 5597 5598 5595 5594 5593 5591 5589 5588 5586 5584 5582 5580 5578 5577 5576 5576 5575 5574 5573 5572 5572 5572 5572 5572 5572 5572 5572 5571 5571 5571 5571
5592 5592 5592 5592 5592 5591 5591 5591 5591 5589 5589 5588 5589 5588 5589 5588 5586 5585 5583 5582 5580 5579 5577 5574 5572 5571 5569 5569 5568 5567 5566 5565 5564 5563 5562 5562 5562 5562 5562 5562 5561 5561 5561 5561
5584 5584 5585 5585 5585 5583 5582 5583 5583 5582 5582 5581 5581 5581 5582 5580 5578 5577 5576 5574 5572 5571 5569 5567 5565 5563 5562 5561 5560 5559 5558 5556 5555 5554 5553 5553 5553 5553 5552 5552 5551 5551 5551 5551
5577 5577 5577 5577 5577 5574 5575 5578 5576 5575 5575 5575 5573 5575 5573 5572 5571 5570 5568 5567 5565 5563 5561 5559 5558 5557 5555 5554 5553 5552 5550 5548 5547 5545 5545 5544 5544 5544 5543 5543 5542 5542 5541 5541
5570 5570 5568 5568 5569 5566 5572 5571 5569 5568 5568 5567 5566 5566 5565 5564 5563 5562 5561 5559 5558 5556 5554 5552 5551 5550 5548 5546 5545 5543 5542 5540 5539 5537 5536 5536 5535 5535 5534 5534 5533 5532 5532 5531
5562 5562 5561 5560 5559 5559 5563 5563 5562 5560 5560 5560 5559 5558 5557 5556 5555 5555 5554 5552 5550 5549 5547 5545 5544 5543 5541 5539 5537 5535 5534 5532 5531 5530 5528 5527 5526 5526 5525 5525 5524 5523 5522 5522
5555 5554 5554 5552 5551 5551 5557 5556 5553 5553 5552 5554 5551 5550 5549 5548 5548 5548 5546 5545 5543 5541 5540 5539 5537 5535 5533 5531 5529 5527 5525 5524 5522 5521 5520 5519 5518 5517 5516 5515 5514 5514 5513 5512
5546 5546 5546 5545 5543 5544 5548 5547 5546 5547 5547 5546 5544 5543 5542 5541 5540 5540 5538 5537 5536 5534 5533 5531 5529 5527 5525 5523 5521 5519 5517 5516 5514 5513 5512 5511 5510 5509 5507 5506 5505 5504 5503 5503
5537 5538 5538 5537 5536 5540 5540 5539 5539 5539 5538 5537 5536 5536 5535 5534 5533 5532 5531 5530 5528 5527 5525 5523 5521 5519 5517 5515 5513 5511 5509 5508 5506 5505 5504 5503 5501 5500 5499 5497 5496 5495 5494 5494
5529 5531 5530 5531 5532 5532 5531 5531 5530 5530 5530 5529 5529 5528 5528 5527 5526 5525 5524 5522 5521 5519 5517 5515 5513 5511 5509 5506 5504 5502 5501 5499 5498 5497 5496 5494 5493 5492 5490 5489 5488 5487 5486 5485
5522 5522 5522 5522 5524 5524 5523 5522 5522 5522 5521 5521 5521 5521 5521 5520 5519 5518 5517 5515 5514 5512 5510 5507 5505 5503 5501 5498 5496 5494 5493 5491 5490 5489 5487 5486 5485 5484 5482 5481 5479 5478 5477 5477
5514 5514 5513 5514 5516 5515 5515 5514 5514 5514 5513 5513 5513 5513 5513 5512 5511 5510 5509 5507 5506 5504 5502 5499 5497 5495 5493 5490 5489 5487 5485 5484 5482 5481 5480 5478 5477 5475 5474 5473 5471 5470 5469 5468
5506 5506 5506 5507 5508 5507 5507 5507 5506 5506 5506 5506 5505 5505 5505 5504 5503 5502 5501 5500 5498 5497 5494 5492 5489 5487 5485 5483 5481 5480 5478 5477 5475 5474 5472 5470 5469 5468 5467 5465 5464 5462 5462 5461